IRNSS-1E (41241 NORAD) Tracking and Keplerian Element Data

This shows tracking and keplerian element data for the satellite.

Feedback or suggestion? Click here.




ElementValue
Catalog41241
NameIRNSS-1E
Epoch Orbit1039
Epoch Day317.83646873
Epoch Year2018
RAAN105.8966
Inclination28.8679
Eccentricity0.0020495
Argument of Perigee179.3947
Mean Anonmoly180.5747
Mean Motion1.0027117
Decay Rate-2.66E-06
L11 41241U 16003A 18317.83646873 -.00000266 00000-0 00000+0 0 9991
L22 41241 28.8679 105.8966 0020495 179.3947 180.5747 1.00271170 10393

Live tracking and technical data element details for IRNSS-1E (NORAD 41241). IRNSS-1E can be tracked NOW for your location showing map with azimuth and elevation plus other details from your city location.

Track the satellite on the map from your city or location and see movement details for azimuth, elevation, latitude, longitude, range, height, and movement on the map or in text.







IsCatalogInMostPopularTable: catalog: 41241, numindb: 113
Update: records affected: 1



GetName: 41241 IRNSS-1E

Hit Count: updated at: Wed, 14 Nov 2018 12:05:27 GMT